Flag for U.S.A. Weather past 2 weeks in Carrollton, Texas, U.S.A.

Now
69 °F

Partly sunny.


Feels Like: 69 °F
Forecast: 57 / 68 °F
Wind: 14 mph from East

Location: Dallas Love Field

Current Time: Apr 27, 2015 at 12:51:28 PM

Latest Report: Apr 27, 2015 at 11:55 AM


Visibility: 10 mi

Pressure: 29.75 "Hg

Humidity: 63%

Dew point: 56 °F

Location of CarrolltonLocation

Historic Weather in Carrollton — Graph

°F

Carrollton temperature yesterday

Maximum temperature yesterday: 86 °F (at 2:53 PM)
Minimum temperature yesterday: 61 °F (at 6:53 AM)
Average temperature yesterday: 75 °F

Past Weeks' High & Low Weather Summary

 TemperatureHumidityPressure
High88 °F (Apr 25, 3:53 PM)97% (Apr 17, 10:03 PM)30.09 "Hg (Apr 17, 10:03 PM)
Low49 °F (Apr 20, 6:53 AM)22% (Apr 25, 3:53 PM)29.54 "Hg (Apr 26, 8:53 PM)
Average68 °F72%29.86 "Hg
* Reported Apr 12 11:53 AM — Apr 27 11:55 AM, Carrollton, Weather by CustomWeather, © 2015

Note: Actual official high and low records may vary slightly from our data, if they occured in-between our weather recording intervals... More about our weather records

Advertising

Carrollton weather history for previous 24 hours

 ConditionsComfort  
Time TempWeatherWind HumidityBarometerVisibility
11:55 AM
Mon, Apr 27
69 °FPartly sunny.14 mph63%29.75 "Hg10 mi
10:53 AM69 °FPartly sunny.21 mph66%29.71 "Hg10 mi
9:53 AM64 °FOvercast.17 mph75%29.72 "Hg10 mi
8:53 AM63 °FPartly sunny.15 mph81%29.71 "Hg10 mi
7:59 AM64 °FPartly sunny.10 mph84%29.71 "Hg10 mi
6:53 AM67 °FPartly cloudy.22 mph79%29.66 "Hg10 mi
5:53 AM68 °FPassing clouds.14 mph78%29.64 "Hg10 mi
4:53 AM68 °FOvercast.13 mph73%29.64 "Hg10 mi
3:53 AM69 °FLight rain. Mostly cloudy.22 mph73%29.63 "Hg10 mi
2:53 AM72 °FMostly cloudy.10 mph68%29.64 "Hg10 mi
1:53 AM76 °FLight rain. Mostly cloudy.14 mph47%29.65 "Hg10 mi
12:53 AM74 °FThunderstorms. Overcast.7 mph69%29.65 "Hg10 mi
11:53 PM
Sun, Apr 26
76 °FThunderstorms. Overcast.12 mph67%29.65 "Hg10 mi
10:53 PM77 °FThunderstorms. Mostly cloudy.12 mph64%29.63 "Hg10 mi
9:53 PM78 °FThunderstorms. Mostly cloudy.15 mph58%29.54 "Hg10 mi
8:53 PM79 °FThunderstorms. Cloudy.22 mph54%29.54 "Hg10 mi
7:53 PM80 °FBroken clouds.16 mph56%29.55 "Hg10 mi
6:53 PM80 °FBroken clouds.13 mph54%29.55 "Hg10 mi
5:53 PM81 °FBroken clouds.14 mph51%29.55 "Hg10 mi
4:53 PM81 °FThunderstorms. Broken clouds.6 mph51%29.61 "Hg10 mi
3:53 PM85 °FBroken clouds.8 mph39%29.60 "Hg10 mi
2:53 PM86 °FBroken clouds.10 mph49%29.62 "Hg10 mi
1:53 PM85 °FSunny.8 mph57%29.69 "Hg9 mi
12:53 PM84 °FMostly cloudy.9 mph51%29.67 "Hg10 mi
Weather by CustomWeather, © 2015

See weather overviewHow to use our weather pages